Temperature
15 15 16 16 16 16 16 16 16 16 16 16 16 16 16 16 16 16 16 16 16 16 16 16 16 16 16 15 15 15 15 15 15 15 15 15 15 15 15 15 14 14 15
15 15 16 16 16 16 16 16 16 16 16 16 16 16 16 16 16 16 16 16 16 16 16 16 16 16 15 15 15 15 15 15 15 15 15 15 15 15 15 15 14 14 15
15 15 16 16 16 16 16 16 16 16 16 16 16 16 16 16 16 16 16 16 16 16 16 16 15 15 15 15 15 15 15 15 15 15 15 14 14 15 14 14 14 14 14
15 15 15 15 16 16 16 16 16 16 16 16 16 16 16 16 16 15 15 15 15 15 15 16 15 15 15 15 15 15 15 15 15 15 14 14 14 14 14 14 14 14 14
15 15 15 15 15 15 15 16 16 16 16 16 16 16 16 16 15 15 15 15 15 15 15 15 15 15 15 15 15 15 15 15 15 14 14 14 14 14 14 14 14 14 14
14 15 15 15 15 15 15 15 15 15 16 16 16 16 16 16 15 15 15 15 15 15 15 15 15 15 15 15 15 15 15 15 14 14 14 14 14 14 14 14 14 14 14
14 14 14 15 15 15 15 15 15 15 15 15 16 16 16 16 16 15 15 15 15 15 15 15 15 15 15 15 15 15 15 15 14 13 14 14 14 14 14 14 14 14 14
14 14 14 14 14 15 15 15 15 15 15 15 15 15 15 15 15 15 15 15 15 15 15 15 15 15 15 15 15 15 15 14 14 13 13 14 14 14 14 14 14 14 14
14 14 14 14 14 14 14 14 15 15 15 15 15 15 15 15 15 15 15 15 15 15 15 15 15 15 15 14 14 14 14 14 14 13 13 13 14 14 14 14 14 14 14
14 14 14 14 14 14 14 14 14 14 14 14 15 15 15 15 15 15 15 15 15 15 15 14 15 15 14 14 14 14 14 14 13 13 13 13 14 14 14 14 14 14 14
13 13 13 14 13 14 14 14 14 14 14 14 14 14 14 14 14 14 15 15 14 14 14 14 14 14 14 14 14 14 14 14 13 13 13 13 14 14 14 14 14 14 14
13 13 13 13 13 13 13 13 14 14 14 14 14 14 14 14 14 14 14 14 14 14 14 14 14 14 14 14 14 14 14 13 13 13 13 14 14 14 14 14 14 14 14
12 13 13 13 13 13 13 13 13 13 13 13 13 13 14 14 14 14 14 14 14 14 14 14 14 14 13 13 13 13 13 13 13 13 13 14 14 13 13 13 13 13 13
12 12 12 12 12 12 12 13 13 13 13 13 13 13 13 13 13 13 13 13 13 13 13 13 13 13 13 13 13 13 13 13 13 13 13 13 13 13 13 13 13 13 13
12 12 12 12 12 12 12 12 12 13 13 13 13 13 13 13 13 13 13 13 13 13 13 13 13 13 13 13 13 13 13 13 13 13 13 13 13 13 13 13 13 13 13
12 12 12 12 12 12 12 12 12 12 12 12 12 12 12 12 12 13 13 13 13 13 13 13 13 12 13 13 13 13 13 12 12 12 13 13 13 13 13 13 13 13 13
11 11 11 11 11 11 11 11 11 12 12 12 12 12 12 12 12 12 12 12 12 12 12 12 12 12 12 12 12 12 12 12 12 12 12 12 12 13 13 13 13 13 13
11 11 11 11 11 11 11 11 11 11 11 11 11 11 12 12 12 12 12 12 12 12 12 12 12 12 12 12 12 12 12 12 12 12 12 12 12 12 12 12 12 13 13
11 11 11 11 11 11 11 11 11 11 11 11 11 11 11 11 11 11 11 12 12 11 11 12 11 11 11 11 11 11 11 11 11 11 11 11 11 11 11 12 12 12 12
11 11 11 11 11 11 11 10 10 10 10 11 11 11 11 11 11 11 11 11 11 11 11 11 11 11 11 11 11 11 11 11 11 11 11 11 11 11 11 11 11 11 12
10 11 11 11 11 10 10 10 10 10 10 10 10 10 10 10 10 10 10 10 10 10 10 10 11 10 10 10 10 10 10 10 10 10 10 10 10 10 10 11 11 11 11
10 10 10 10 10 10 10 10 10 10 10 10 10 10 10 10 10 10 10 10 10 10 10 10 10 10 10 9 9 8 9 9 9 10 10 10 10 10 10 10 10 10 10
10 10 10 10 10 10 10 10 10 9 9 10 10 10 10 9 9 10 10 10 10 9 9 9 9 9 9 9 8 8 8 9 8 8 9 9 9 9 9 9 9 10 9
10 10 10 10 10 10 9 9 9 9 9 9 9 9 9 9 9 9 9 9 9 9 9 9 9 9 8 8 8 8 8 7 7 8 8 8 8 8 8 8 9 9 9
10 10 10 10 9 9 9 9 9 9 9 9 9 9 9 9 9 9 9 9 8 8 8 8 8 8 7 7 7 7 7 7 6 6 7 7 7 7 7 8 8 8 8
10 9 9 9 9 9 9 9 9 8 8 8 8 8 8 8 8 8 8 8 8 8 8 8 7 7 7 7 7 6 6 6 6 6 6 6 6 6 7 7 7 7 7
Wind_Speed
7 9 10 10 11 11 11 10 10 11 11 10 10 10 9 9 9 9 9 9 9 9 9 9 8 9 9 9 9 9 9 8 9 9 9 9 9 9 9 7 6 9 10
9 10 11 11 11 11 11 10 10 10 10 10 10 9 9 9 9 9 9 9 8 8 8 8 8 8 8 9 8 8 8 8 8 8 7 8 8 8 8 6 6 8 9
9 11 12 11 12 11 11 10 10 9 9 9 9 9 9 8 8 8 9 8 8 8 8 8 8 8 8 8 8 7 7 7 7 5 4 6 7 7 7 6 7 7 8
8 10 11 12 12 11 11 10 10 9 9 9 9 9 9 8 8 8 8 8 7 7 7 7 7 7 7 7 7 6 6 6 5 4 4 4 5 7 6 5 6 6 6
8 10 11 12 11 11 10 10 10 9 9 9 9 9 8 8 7 7 8 8 7 7 6 6 7 7 6 6 6 5 5 5 4 4 3 3 4 6 4 4 4 4 4
8 9 11 12 11 11 10 10 9 9 9 8 8 8 8 7 7 7 7 7 6 6 6 6 6 6 6 5 5 5 5 4 5 4 3 3 4 5 4 3 3 3 3
7 8 10 11 11 10 10 9 9 8 8 7 7 7 7 7 7 6 6 6 6 5 5 5 5 5 5 5 4 4 4 4 3 3 3 3 3 3 4 4 3 3 3
6 7 9 10 10 10 10 9 8 7 7 6 6 6 6 6 6 6 6 6 5 5 4 4 4 4 4 4 4 4 5 5 4 4 4 3 3 4 5 4 4 4 4
6 6 7 8 8 9 9 9 8 7 6 6 6 6 6 6 5 5 5 5 4 4 3 4 4 4 4 3 3 4 4 6 6 4 4 4 4 5 6 6 6 6 6
5 5 6 6 6 6 7 8 8 8 7 6 6 5 6 6 5 5 5 4 3 3 2 3 3 3 3 4 4 3 4 7 7 6 5 4 5 7 7 7 7 7 7
4 4 4 5 5 5 6 7 7 7 7 5 5 5 4 4 4 4 4 4 3 2 2 2 2 2 3 5 5 4 6 6 6 6 5 3 6 8 9 9 8 9 8
4 4 4 4 5 5 4 4 4 5 5 4 3 3 2 2 2 2 4 3 2 2 2 2 2 3 4 4 5 6 6 6 6 6 5 5 7 9 10 10 10 10 10
4 3 4 4 4 4 4 3 3 3 3 4 4 3 2 2 2 2 2 2 2 2 2 2 4 3 4 3 4 5 6 6 6 6 6 6 8 10 10 11 10 11 12
5 4 4 4 4 4 4 3 3 3 3 2 3 3 2 1 1 1 0 0 1 1 1 2 2 3 4 4 5 5 6 6 6 6 5 6 9 10 10 10 10 11 12
5 4 3 4 5 4 3 3 3 3 3 3 3 3 2 1 1 1 1 1 1 2 2 2 3 3 4 4 5 5 5 6 7 7 6 6 8 9 11 11 11 11 11
4 4 4 4 5 5 3 3 3 3 3 3 4 4 3 2 2 1 1 1 2 2 3 3 3 3 4 4 4 5 6 6 7 8 8 7 8 9 10 11 11 11 11
4 4 4 5 5 5 4 3 3 3 3 3 3 4 4 3 3 2 1 2 2 3 3 3 3 3 3 4 5 5 5 6 6 7 8 7 7 8 10 10 10 10 10
4 4 4 4 5 5 4 3 3 2 2 3 3 3 4 4 4 3 2 2 3 3 3 2 2 3 3 4 4 4 5 5 6 7 7 7 7 7 7 9 9 10 10
4 4 4 4 5 4 4 3 3 3 2 3 3 3 3 3 3 3 2 2 3 2 2 2 2 3 3 4 4 4 5 5 5 5 6 6 6 6 6 6 8 9 9
4 4 4 5 5 4 3 3 2 2 2 3 2 3 3 3 3 3 2 3 3 2 2 2 3 3 3 4 4 4 4 5 4 5 5 5 4 5 6 6 6 6 7
5 5 5 5 5 4 3 2 2 2 1 2 2 2 2 2 3 2 2 3 3 2 3 3 3 3 3 3 3 3 4 4 4 3 3 3 4 4 4 5 5 5 5
6 6 6 5 5 4 2 2 1 1 1 1 1 1 2 2 3 3 3 2 3 3 3 3 3 2 2 2 2 3 3 3 2 3 3 3 4 3 3 4 4 5 5
6 6 5 6 5 4 3 2 2 1 1 1 1 0 1 2 2 2 2 3 3 3 3 3 3 3 3 3 2 3 3 3 3 2 3 3 3 3 4 4 4 4 5
5 5 5 5 5 4 4 4 3 2 2 1 1 1 1 1 2 2 2 2 2 3 3 3 3 3 3 3 3 3 4 4 4 3 3 3 4 4 4 4 4 4 5
4 4 5 5 5 5 4 4 4 3 2 1 1 1 1 1 1 2 2 2 2 2 3 3 3 3 3 3 3 3 4 4 6 5 6 5 4 4 5 5 4 4 5
4 4 4 5 5 5 5 5 5 4 3 3 2 2 2 1 1 2 2 2 2 2 3 3 4 4 4 4 4 4 4 4 4 5 6 7 7 6 6 5 5 4 4
Wind_Direction
153 150 145 145 141 135 131 128 127 126 128 128 127 126 127 125 125 125 125 123 118 118 114 111 112 112 107 104 102 100 98 96 95 95 93 92 94 96 92 90 102 95 88
150 152 146 147 143 139 134 131 127 128 128 126 127 128 127 127 127 128 129 125 123 121 119 114 112 115 113 109 104 103 101 96 97 99 105 108 100 98 97 86 65 90 93
147 150 151 148 143 140 137 134 131 129 130 129 127 126 127 126 129 128 128 123 121 121 121 119 116 114 117 115 110 107 108 106 100 116 156 128 113 105 105 99 93 96 99
147 149 149 143 142 140 141 139 136 134 131 129 127 126 126 125 123 127 127 124 121 120 119 121 120 121 120 121 121 117 112 117 121 172 156 121 119 113 110 106 106 105 107
147 147 140 139 139 138 144 141 138 137 132 130 127 127 128 128 124 121 126 123 120 118 120 126 127 125 127 127 132 133 128 125 155 186 135 130 123 121 125 122 120 118 118
145 144 139 139 137 137 139 140 138 137 134 132 130 129 129 127 126 122 124 125 126 125 125 132 138 136 134 136 142 150 151 157 192 163 156 151 137 130 141 146 149 142 138
139 138 139 137 136 138 136 133 135 137 133 132 131 130 129 125 121 121 121 127 132 137 138 138 145 148 149 149 153 163 169 193 208 177 174 169 153 157 172 172 178 177 173
129 130 134 129 133 138 133 131 128 126 124 127 132 131 128 124 123 122 119 123 128 134 140 147 149 157 162 169 172 175 188 210 214 204 197 190 169 198 198 196 199 200 197
122 125 131 132 129 130 128 126 123 121 124 118 124 127 125 122 122 126 124 128 132 138 140 149 160 168 175 179 185 191 199 223 228 217 213 210 189 217 217 213 211 212 203
119 122 128 132 133 134 135 125 123 117 113 109 104 118 126 131 135 135 140 131 135 139 147 152 159 180 194 196 193 199 214 230 231 224 223 212 210 227 228 224 221 217 214
102 109 123 123 121 124 132 129 127 121 113 115 108 102 140 155 154 153 126 121 131 142 151 160 173 186 209 203 200 209 223 238 238 237 233 215 227 234 236 235 231 225 224
123 121 121 119 112 110 109 120 122 122 119 118 114 113 135 150 144 143 130 128 139 158 183 188 206 209 227 223 205 212 235 243 246 240 233 218 237 242 243 243 238 233 231
142 125 120 114 105 102 98 100 96 98 106 111 107 98 91 134 140 143 154 160 176 197 212 210 221 231 239 240 238 236 247 251 248 246 236 219 239 246 247 246 245 240 235
142 128 125 121 114 99 91 85 88 85 86 85 84 80 77 84 112 108 117 184 230 243 259 250 256 253 253 250 249 252 253 252 252 252 246 228 244 249 251 249 251 247 241
151 140 134 129 123 116 104 86 82 74 67 68 72 69 66 57 80 72 24 355 307 296 284 280 271 271 267 262 256 255 256 257 256 254 249 227 242 252 254 254 254 252 248
158 150 139 136 128 120 114 105 86 78 76 65 62 62 57 39 26 22 13 354 336 314 300 285 286 276 271 268 264 262 261 260 260 257 257 241 228 243 254 257 257 256 256
167 160 151 147 134 126 121 110 93 83 77 69 61 59 58 46 24 14 6 356 343 326 308 298 295 286 280 275 271 269 265 261 260 260 258 256 244 231 238 251 256 257 258
164 164 154 148 141 135 124 116 103 87 81 77 69 61 55 48 27 10 7 355 345 337 325 306 301 292 283 283 282 280 273 267 263 262 258 255 255 254 238 237 248 256 259
165 163 155 151 146 133 121 115 108 102 88 79 74 61 46 43 31 9 0 351 342 339 335 321 313 303 293 289 283 280 276 269 264 261 259 259 257 260 261 245 237 247 258
163 163 162 153 142 135 133 131 127 113 93 80 72 59 43 31 24 7 356 352 345 332 331 328 316 310 299 297 291 280 278 275 268 263 262 261 266 266 267 267 257 246 245
166 168 168 155 151 151 153 157 154 143 120 102 72 57 42 25 14 1 354 347 341 332 331 330 324 315 322 316 294 287 271 259 258 263 267 271 276 279 277 279 273 269 260
174 174 171 166 165 165 164 156 149 139 135 111 88 58 27 10 2 351 345 336 335 328 329 334 332 312 317 331 307 293 285 256 241 273 274 278 284 290 290 296 296 288 283
183 183 178 173 170 170 162 145 141 151 165 172 176 55 20 3 353 341 332 328 329 322 316 319 318 310 303 304 300 287 285 287 310 267 271 276 293 301 300 310 303 298 291
189 181 179 172 171 175 176 180 186 203 216 225 229 256 320 337 334 327 320 322 318 314 305 302 299 293 283 286 289 276 279 290 285 289 266 278 296 296 299 306 305 306 301
182 177 176 172 174 179 189 197 204 217 228 221 221 245 272 294 316 314 308 306 299 296 299 299 291 283 281 279 278 278 273 272 266 270 282 291 295 296 297 300 298 299 305
178 176 176 179 184 188 197 205 213 219 223 228 240 251 258 265 274 285 287 283 284 287 289 288 282 274 272 270 267 265 264 266 268 267 273 285 291 295 295 294 290 292 305
Height
1521 1522 1523 1525 1527 1528 1529 1530 1531 1532 1532 1533 1533 1534 1534 1535 1535 1536 1536 1537 1537 1538 1538 1538 1538 1538 1538 1538 1538 1538 1538 1538 1538 1538 1538 1538 1538 1538 1538 1538 1539 1539 1538
1519 1521 1523 1525 1527 1528 1529 1530 1531 1532 1532 1533 1534 1534 1535 1535 1536 1536 1537 1537 1537 1538 1538 1538 1538 1538 1538 1539 1539 1539 1539 1539 1539 1539 1539 1539 1539 1539 1539 1539 1539 1540 1539
1519 1521 1523 1525 1526 1528 1529 1530 1531 1532 1533 1533 1534 1534 1535 1535 1536 1536 1537 1537 1538 1538 1538 1538 1538 1539 1539 1539 1539 1539 1539 1539 1540 1540 1540 1541 1540 1540 1540 1540 1540 1540 1540
1519 1521 1522 1524 1526 1527 1529 1530 1531 1532 1533 1533 1534 1534 1535 1535 1536 1536 1537 1537 1538 1538 1538 1538 1538 1539 1539 1539 1539 1539 1539 1540 1540 1540 1542 1542 1541 1540 1540 1540 1540 1540 1540
1519 1521 1522 1524 1526 1527 1529 1530 1531 1532 1532 1533 1534 1534 1535 1535 1536 1536 1537 1537 1537 1538 1538 1538 1538 1539 1539 1539 1539 1539 1539 1540 1540 1541 1541 1541 1541 1540 1540 1540 1540 1540 1540
1519 1521 1522 1524 1525 1527 1528 1529 1530 1531 1532 1533 1533 1534 1535 1535 1536 1536 1536 1537 1537 1537 1538 1538 1538 1538 1538 1539 1539 1539 1539 1540 1540 1541 1541 1541 1541 1540 1540 1540 1540 1540 1540
1518 1520 1522 1523 1525 1526 1527 1529 1530 1531 1532 1532 1533 1534 1534 1535 1535 1536 1536 1536 1536 1537 1537 1537 1538 1538 1538 1538 1538 1539 1539 1539 1540 1541 1541 1541 1540 1540 1540 1540 1540 1540 1540
1518 1519 1521 1523 1524 1526 1527 1528 1529 1530 1530 1531 1532 1533 1533 1534 1534 1535 1535 1535 1536 1536 1536 1537 1537 1537 1537 1538 1538 1538 1539 1539 1539 1540 1540 1540 1540 1540 1540 1540 1540 1540 1540
1517 1519 1520 1522 1524 1525 1526 1527 1528 1529 1530 1530 1531 1532 1532 1533 1534 1534 1534 1534 1535 1535 1535 1536 1536 1536 1537 1537 1537 1537 1538 1538 1539 1539 1539 1539 1539 1539 1539 1539 1539 1539 1540
1517 1518 1520 1521 1523 1524 1525 1527 1527 1528 1529 1529 1530 1531 1531 1532 1532 1533 1533 1533 1533 1534 1534 1534 1535 1535 1535 1536 1536 1536 1536 1537 1538 1538 1538 1538 1538 1538 1538 1538 1539 1539 1539
1516 1518 1519 1521 1522 1523 1524 1526 1526 1527 1527 1528 1529 1530 1530 1531 1531 1531 1532 1532 1532 1533 1533 1533 1533 1533 1534 1534 1534 1535 1535 1536 1537 1537 1536 1536 1536 1537 1537 1537 1537 1538 1538
1515 1517 1518 1520 1521 1522 1523 1524 1525 1526 1526 1527 1528 1528 1529 1529 1530 1530 1530 1530 1531 1531 1531 1531 1532 1532 1532 1532 1532 1533 1533 1534 1534 1534 1534 1534 1535 1535 1535 1535 1536 1536 1536
1515 1516 1517 1518 1520 1520 1522 1523 1524 1525 1525 1526 1527 1526 1527 1528 1528 1528 1529 1529 1529 1529 1530 1529 1530 1530 1530 1530 1530 1531 1531 1532 1532 1532 1532 1532 1532 1533 1533 1533 1534 1534 1534
1514 1515 1517 1518 1519 1520 1521 1522 1523 1524 1524 1525 1525 1525 1525 1526 1527 1527 1527 1527 1527 1527 1527 1527 1527 1528 1528 1528 1528 1528 1529 1529 1529 1529 1529 1529 1530 1530 1531 1531 1531 1531 1532
1513 1515 1516 1517 1518 1519 1520 1521 1522 1522 1523 1523 1523 1523 1524 1525 1525 1525 1525 1525 1525 1525 1525 1525 1525 1525 1525 1525 1525 1525 1525 1526 1526 1526 1526 1526 1526 1527 1527 1528 1528 1528 1529
1512 1514 1515 1516 1517 1518 1519 1520 1521 1521 1521 1521 1521 1522 1522 1523 1523 1523 1523 1523 1523 1523 1523 1523 1523 1523 1523 1523 1522 1522 1522 1522 1522 1522 1523 1523 1522 1523 1524 1524 1524 1525 1525
1512 1513 1514 1516 1516 1518 1519 1519 1520 1520 1520 1520 1520 1520 1521 1522 1521 1521 1521 1521 1521 1521 1521 1520 1520 1520 1520 1520 1520 1519 1519 1519 1519 1519 1519 1519 1519 1519 1519 1520 1520 1521 1521
1510 1512 1513 1514 1515 1517 1518 1518 1519 1519 1519 1519 1519 1519 1520 1520 1520 1520 1519 1519 1519 1518 1518 1518 1518 1518 1517 1517 1517 1516 1516 1515 1515 1515 1515 1515 1515 1515 1515 1515 1516 1517 1517
1510 1511 1512 1513 1514 1515 1516 1517 1518 1518 1519 1518 1518 1518 1519 1519 1519 1518 1517 1517 1517 1516 1516 1516 1515 1515 1514 1514 1513 1513 1512 1512 1511 1511 1511 1511 1511 1511 1511 1511 1511 1512 1512
1509 1510 1511 1512 1513 1514 1516 1516 1517 1517 1517 1517 1517 1517 1517 1517 1517 1516 1516 1515 1515 1514 1514 1513 1513 1512 1511 1510 1510 1509 1509 1508 1507 1507 1507 1508 1507 1507 1507 1507 1507 1507 1507
1508 1509 1510 1510 1512 1513 1515 1515 1516 1516 1516 1516 1516 1516 1515 1515 1515 1515 1514 1513 1512 1512 1511 1511 1510 1510 1509 1508 1507 1506 1505 1505 1504 1504 1504 1504 1504 1504 1503 1503 1503 1503 1502
1506 1507 1508 1509 1511 1512 1513 1514 1515 1515 1515 1515 1514 1514 1513 1513 1513 1512 1512 1511 1510 1510 1509 1508 1508 1507 1506 1506 1505 1504 1504 1503 1501 1501 1500 1500 1500 1500 1500 1499 1499 1498 1498
1504 1506 1507 1507 1509 1510 1512 1512 1513 1513 1513 1513 1513 1512 1512 1511 1511 1510 1510 1509 1508 1507 1507 1506 1505 1505 1504 1504 1503 1504 1503 1501 1499 1498 1497 1497 1497 1496 1496 1495 1494 1494 1494
1502 1504 1506 1507 1508 1509 1510 1511 1511 1512 1511 1511 1511 1510 1510 1509 1509 1508 1507 1506 1505 1504 1504 1503 1502 1502 1501 1501 1500 1500 1500 1499 1499 1496 1495 1494 1493 1493 1492 1491 1491 1490 1490
1501 1502 1504 1505 1506 1507 1508 1509 1509 1509 1509 1508 1508 1508 1507 1507 1506 1505 1504 1503 1502 1502 1501 1500 1499 1499 1498 1498 1497 1497 1496 1496 1495 1495 1492 1491 1490 1489 1488 1487 1486 1486 1485
1499 1500 1502 1503 1504 1505 1505 1506 1506 1506 1506 1506 1505 1505 1505 1504 1503 1502 1501 1500 1499 1498 1498 1497 1496 1496 1495 1494 1494 1493 1493 1492 1492 1491 1490 1488 1486 1485 1484 1483 1482 1482 1481